Location: Newark
(33.6333°S, 78.8500°W)
Time: 13:23:40
(UTC+00:00)

Tiros 1 despin weight - Pass Details

Date: 29 September 2019
Orbit: 593 x 643 km, 48.2° (Epoch: 21 October)

Event Time Altitude Azimuth Distance (km) Brightness Sun altitude
Rises 05:47:46 0° 229° (SW) 2,906 - -52.7°
Reaches altitude 10° 05:51:04 10° 204° (SSW) 2,010 - -52.5°
Maximum altitude 05:53:39 15° 170° (S) 1,733 - -52.3°
Drops below altitude 10° 05:56:14 10° 136° (SE) 2,025 - -52.1°
Sets 05:59:36 0° 111° (ESE) 2,941 - -51.9°
